| time (UTC) | temp F | wind direction | speed MPH | gust MPH | rain 1hr in | rain 24hr in | rain mn in | humidity % | barometer mb |
| 20260503210146 | 80 | 211 | 4.0 | 14.0 | 0.00 | 0.00 | 0.00 | 35 | 1017.2 |
| 20260503205200 | 79 | 141 | 4.0 | 14.0 | 0.00 | 0.00 | 0.00 | 33 | 1017.6 |
| 20260503202952 | 80 | 174 | 4.0 | 13.0 | 0.00 | 0.00 | 0.00 | 34 | 1017.9 |
| 20260503202000 | 79 | 161 | 4.0 | 14.0 | 0.00 | 0.00 | 0.00 | 34 | 1018.2 |
| 20260503200948 | 79 | 153 | 5.0 | 14.0 | 0.00 | 0.00 | 0.00 | 35 | 1018.1 |
| 20260503195928 | 79 | 118 | 4.0 | 16.0 | 0.00 | 0.00 | 0.00 | 33 | 1018.3 |
| 20260503194854 | 79 | 202 | 6.0 | 16.0 | 0.00 | 0.00 | 0.00 | 35 | 1018.6 |
| 20260503193917 | 79 | 203 | 4.0 | 12.0 | 0.00 | 0.00 | 0.00 | 33 | 1018.6 |
| 20260503192845 | 79 | 187 | 5.0 | 12.0 | 0.00 | 0.00 | 0.00 | 31 | 1018.8 |
| 20260503191825 | 79 | 134 | 4.0 | 14.0 | 0.00 | 0.00 | 0.00 | 31 | 1018.9 |
| 20260503190758 | 79 | 208 | 4.0 | 14.0 | 0.00 | 0.00 | 0.00 | 31 | 1018.9 |
| 20260503185751 | 79 | 218 | 3.0 | 12.0 | 0.00 | 0.00 | 0.00 | 35 | 1019.1 |
| 20260503184716 | 79 | 226 | 2.0 | 13.0 | 0.00 | 0.00 | 0.00 | 37 | 1019.3 |
| 20260503182620 | 78 | 142 | 4.0 | 11.0 | 0.00 | 0.00 | 0.00 | 36 | 1019.6 |
| 20260503181558 | 79 | 280 | 3.0 | 7.0 | 0.00 | 0.00 | 0.00 | 36 | 1019.8 |
| 20260503180529 | 79 | 145 | 3.0 | 10.0 | 0.00 | 0.00 | 0.00 | 33 | 1019.9 |
| 20260503174342 | 78 | 177 | 4.0 | 12.0 | 0.00 | 0.00 | 0.00 | 36 | 1020.5 |
| 20260503173352 | 78 | 190 | 3.0 | 12.0 | 0.00 | 0.00 | 0.00 | 37 | 1020.6 |
| 20260503172402 | 77 | 144 | 4.0 | 15.0 | 0.00 | 0.00 | 0.00 | 37 | 1020.7 |
| 20260503170220 | 76 | 212 | 4.0 | 13.0 | 0.00 | 0.00 | 0.00 | 41 | 1021.0 |
| 20260503081528 | 59 | 200 | 0.0 | 0.0 | 0.00 | 0.01 | 0.00 | 70 | 1019.8 |
| 20260503080531 | 59 | 200 | 0.0 | 3.0 | 0.00 | 0.01 | 0.00 | 69 | 1019.9 |
| 20260503072459 | 57 | 165 | 0.0 | 0.0 | 0.00 | 0.01 | 0.00 | 73 | 1020.1 |
| 20260503071447 | 57 | 165 | 0.0 | 0.0 | 0.00 | 0.01 | 0.00 | 73 | 1020.3 |
| 20260503070433 | 57 | 165 | 0.0 | 0.0 | 0.00 | 0.01 | 0.00 | 72 | 1020.2 |
| 20260503054543 | 60 | 161 | 0.0 | 0.0 | 0.00 | 0.01 | 0.00 | 67 | 1020.4 |
| 20260503053604 | 60 | 161 | 0.0 | 0.0 | 0.00 | 0.01 | 0.00 | 67 | 1020.5 |
| 20260503052542 | 62 | 161 | 0.0 | 0.0 | 0.00 | 0.01 | 0.00 | 66 | 1020.5 |
| 20260503051559 | 62 | 161 | 0.0 | 2.0 | 0.00 | 0.01 | 0.00 | 62 | 1020.5 |
| 20260503050533 | 61 | 163 | 0.0 | 2.0 | 0.00 | 0.01 | 0.00 | 63 | 1020.5 |
| 20260503045526 | 61 | 184 | 0.0 | 2.0 | 0.00 | 0.01 | 0.01 | 63 | 1020.6 |
| 20260503044526 | 62 | 184 | 0.0 | 2.0 | 0.00 | 0.01 | 0.01 | 63 | 1020.5 |
| 20260503043529 | 61 | 179 | 1.0 | 2.0 | 0.00 | 0.01 | 0.01 | 63 | 1020.5 |
| 20260503042510 | 62 | 154 | 0.0 | 1.0 | 0.00 | 0.01 | 0.01 | 63 | 1020.5 |
| 20260503040336 | 63 | 154 | 0.0 | 1.0 | 0.00 | 0.01 | 0.01 | 60 | 1020.2 |
| 20260503035354 | 63 | 154 | 0.0 | 0.0 | 0.00 | 0.01 | 0.01 | 60 | 1020.3 |
| 20260503034325 | 64 | 154 | 0.0 | 0.0 | 0.00 | 0.01 | 0.01 | 60 | 1020.3 |
| 20260503033316 | 64 | 140 | 0.0 | 1.0 | 0.00 | 0.01 | 0.01 | 58 | 1020.2 |
| 20260503032307 | 64 | 140 | 0.0 | 2.0 | 0.00 | 0.01 | 0.01 | 58 | 1020.1 |
| 20260503031245 | 64 | 140 | 1.0 | 2.0 | 0.00 | 0.01 | 0.01 | 58 | 1019.9 |
| 20260503030224 | 63 | 141 | 1.0 | 2.0 | 0.00 | 0.01 | 0.01 | 59 | 1019.9 |
| 20260503025150 | 63 | 119 | 0.0 | 2.0 | 0.00 | 0.01 | 0.01 | 59 | 1019.8 |
| 20260503022956 | 64 | 116 | 0.0 | 2.0 | 0.00 | 0.01 | 0.01 | 60 | 1019.6 |
| 20260503021941 | 64 | 111 | 0.0 | 2.0 | 0.00 | 0.01 | 0.01 | 60 | 1019.4 |
| 20260503020929 | 64 | 113 | 1.0 | 3.0 | 0.00 | 0.01 | 0.01 | 59 | 1019.2 |
| 20260503015859 | 65 | 86 | 0.0 | 3.0 | 0.00 | 0.01 | 0.01 | 59 | 1019.0 |
| 20260503014830 | 65 | 94 | 0.0 | 2.0 | 0.00 | 0.01 | 0.01 | 58 | 1019.0 |
| 20260503013816 | 66 | 93 | 0.0 | 2.0 | 0.00 | 0.01 | 0.01 | 58 | 1019.0 |
| 20260503012739 | 67 | 82 | 0.0 | 2.0 | 0.00 | 0.01 | 0.01 | 57 | 1019.0 |
| 20260503011746 | 68 | 82 | 0.0 | 1.0 | 0.00 | 0.01 | 0.01 | 55 | 1019.0 |
| 20260503010740 | 69 | 82 | 0.0 | 0.0 | 0.00 | 0.01 | 0.01 | 54 | 1018.8 |
| 20260503005721 | 70 | 82 | 0.0 | 1.0 | 0.00 | 0.01 | 0.01 | 50 | 1018.8 |
| 20260503004742 | 70 | 82 | 0.0 | 0.0 | 0.00 | 0.01 | 0.01 | 49 | 1018.9 |
| 20260503003717 | 71 | 65 | 1.0 | 4.0 | 0.00 | 0.01 | 0.01 | 46 | 1018.8 |
| 20260503002723 | 72 | 77 | 1.0 | 4.0 | 0.00 | 0.01 | 0.01 | 45 | 1018.7 |
| 20260503001653 | 73 | 48 | 1.0 | 8.0 | 0.00 | 0.01 | 0.01 | 44 | 1018.7 |
| 20260503000649 | 73 | 51 | 1.0 | 8.0 | 0.00 | 0.01 | 0.01 | 42 | 1018.7 |
| 20260502235654 | 74 | 66 | 1.0 | 6.0 | 0.00 | 0.01 | 0.01 | 42 | 1018.7 |
| 20260502234640 | 74 | 36 | 1.0 | 8.0 | 0.00 | 0.01 | 0.01 | 42 | 1018.6 |
| 20260502233610 | 74 | 52 | 2.0 | 8.0 | 0.00 | 0.01 | 0.01 | 42 | 1018.6 |
| 20260502232625 | 75 | 43 | 2.0 | 7.0 | 0.00 | 0.01 | 0.01 | 42 | 1018.6 |
| 20260502230408 | 75 | 55 | 3.0 | 9.0 | 0.00 | 0.01 | 0.01 | 42 | 1018.5 |
| 20260502225333 | 75 | 96 | 3.0 | 10.0 | 0.00 | 0.01 | 0.01 | 39 | 1018.5 |
| 20260502224258 | 75 | 49 | 3.0 | 10.0 | 0.00 | 0.02 | 0.01 | 38 | 1018.5 |
| 20260502214911 | 75 | 95 | 2.0 | 11.0 | 0.00 | 0.04 | 0.01 | 39 | 1018.7 |
| 20260502212758 | 74 | 41 | 3.0 | 11.0 | 0.00 | 0.07 | 0.01 | 42 | 1019.0 |
| 20260502211726 | 75 | 65 | 3.0 | 10.0 | 0.00 | 0.08 | 0.01 | 40 | 1019.2 |
| 20260502210659 | 75 | 36 | 3.0 | 9.0 | 0.00 | 0.09 | 0.01 | 43 | 1019.3 |